| time (UTC) | temp C | wind direction | speed KPH | gust KPH | rain 1hr cm | rain 24hr cm | rain mn cm | humidity % | barometer mb |
| 20260905010505 | 18 | 192 | 4.8 | 9.7 | 0.00 | 0.43 | 0.43 | 71 | 1014.2 |
| 20260905010005 | 18 | 179 | 3.2 | 8.0 | 0.00 | 0.43 | 0.43 | 72 | 1014.2 |
| 20260905005505 | 17 | 176 | 3.2 | 8.0 | 0.00 | 0.43 | 0.43 | 74 | 1014.2 |
| 20260905004005 | 17 | 139 | 4.8 | 9.7 | 0.00 | 0.43 | 0.43 | 77 | 1014.3 |
| 20260905003504 | 16 | 174 | 3.2 | 9.7 | 0.00 | 0.43 | 0.43 | 78 | 1014.3 |
| 20260905002505 | 16 | 161 | 4.8 | 9.7 | 0.00 | 0.43 | 0.43 | 78 | 1014.3 |
| 20260905001004 | 17 | 144 | 4.8 | 11.3 | 0.00 | 0.43 | 0.43 | 76 | 1014.3 |
| 20260905000504 | 17 | 210 | 6.4 | 12.9 | 0.00 | 0.43 | 0.43 | 76 | 1014.2 |
| 20260905000005 | 17 | 207 | 8.0 | 14.5 | 0.00 | 0.43 | 0.43 | 76 | 1014.2 |
| 20260904235504 | 17 | 192 | 11.3 | 20.9 | 0.00 | 0.43 | 0.43 | 74 | 1014.0 |
| 20260904235005 | 17 | 199 | 8.0 | 14.5 | 0.00 | 0.43 | 0.43 | 74 | 1014.0 |
| 20260904234505 | 17 | 178 | 9.7 | 16.1 | 0.00 | 0.43 | 0.43 | 73 | 1013.9 |
| 20260904233504 | 18 | 194 | 4.8 | 14.5 | 0.00 | 0.43 | 0.43 | 75 | 1013.9 |
| 20260904233005 | 18 | 245 | 6.4 | 16.1 | 0.00 | 0.43 | 0.43 | 74 | 1013.8 |
| 20260904232505 | 18 | 203 | 4.8 | 12.9 | 0.00 | 0.43 | 0.43 | 73 | 1013.6 |
| 20260904232005 | 18 | 197 | 4.8 | 9.7 | 0.00 | 0.43 | 0.43 | 75 | 1013.6 |
| 20260904231504 | 18 | 201 | 4.8 | 9.7 | 0.00 | 0.43 | 0.43 | 76 | 1013.5 |
| 20260904231004 | 18 | 192 | 3.2 | 11.3 | 0.00 | 0.43 | 0.43 | 74 | 1013.5 |
| 20260904230504 | 18 | 202 | 6.4 | 12.9 | 0.00 | 0.43 | 0.43 | 72 | 1013.5 |
| 20260904225004 | 18 | 173 | 4.8 | 11.3 | 0.00 | 0.43 | 0.43 | 70 | 1013.4 |
| 20260904224504 | 18 | 136 | 4.8 | 8.0 | 0.00 | 0.43 | 0.43 | 68 | 1013.4 |
| 20260904224004 | 18 | 104 | 8.0 | 12.9 | 0.00 | 0.43 | 0.43 | 68 | 1013.4 |
| 20260904223505 | 18 | 173 | 1.6 | 8.0 | 0.00 | 0.43 | 0.43 | 70 | 1013.3 |
| 20260904223004 | 18 | 157 | 3.2 | 8.0 | 0.00 | 0.43 | 0.43 | 70 | 1013.3 |
| 20260904222504 | 18 | 100 | 4.8 | 9.7 | 0.03 | 0.43 | 0.43 | 70 | 1013.3 |
| 20260904222004 | 18 | 152 | 4.8 | 11.3 | 0.03 | 0.43 | 0.43 | 70 | 1013.3 |
| 20260904221505 | 18 | 144 | 3.2 | 8.0 | 0.03 | 0.43 | 0.43 | 71 | 1013.2 |
| 20260904221005 | 18 | 221 | 1.6 | 9.7 | 0.03 | 0.43 | 0.43 | 68 | 1013.3 |
| 20260904220504 | 18 | 131 | 4.8 | 9.7 | 0.03 | 0.43 | 0.43 | 72 | 1013.2 |
| 20260904220004 | 18 | 220 | 1.6 | 8.0 | 0.03 | 0.43 | 0.43 | 73 | 1013.2 |
| 20260904215504 | 18 | 180 | 3.2 | 4.8 | 0.05 | 0.43 | 0.43 | 72 | 1013.2 |
| 20260904215005 | 17 | 212 | 4.8 | 8.0 | 0.05 | 0.43 | 0.43 | 79 | 1013.2 |
| 20260904214505 | 17 | 271 | 3.2 | 4.8 | 0.05 | 0.43 | 0.43 | 78 | 1013.2 |
| 20260904214004 | 16 | 0 | 1.6 | 3.2 | 0.05 | 0.43 | 0.43 | 82 | 1013.2 |
| 20260904213504 | 16 | 268 | 1.6 | 3.2 | 0.05 | 0.43 | 0.43 | 82 | 1013.2 |
| 20260904213005 | 16 | 260 | 1.6 | 3.2 | 0.05 | 0.43 | 0.43 | 83 | 1013.1 |
| 20260904211005 | 16 | 263 | 0.0 | 3.2 | 0.03 | 0.41 | 0.41 | 82 | 1013.1 |
| 20260904210504 | 17 | 263 | 1.6 | 3.2 | 0.03 | 0.41 | 0.41 | 79 | 1013.0 |
| 20260904210005 | 17 | 271 | 1.6 | 1.6 | 0.03 | 0.41 | 0.41 | 77 | 1012.9 |
| 20260904205504 | 17 | 271 | 0.0 | 3.2 | 0.00 | 0.38 | 0.38 | 76 | 1012.9 |
| 20260904204504 | 17 | 333 | 1.6 | 3.2 | 0.00 | 0.41 | 0.38 | 74 | 1012.9 |
| 20260904204004 | 17 | 129 | 0.0 | 4.8 | 0.00 | 0.41 | 0.38 | 73 | 1012.9 |
| 20260904203005 | 17 | 315 | 1.6 | 3.2 | 0.00 | 0.41 | 0.38 | 79 | 1012.9 |
| 20260904202504 | 17 | 5 | 1.6 | 3.2 | 0.00 | 0.41 | 0.38 | 79 | 1013.0 |
| 20260904202005 | 17 | 344 | 1.6 | 3.2 | 0.00 | 0.41 | 0.38 | 81 | 1012.9 |
| 20260904201504 | 16 | 322 | 3.2 | 4.8 | 0.00 | 0.41 | 0.38 | 83 | 1013.0 |
| 20260904200505 | 16 | 235 | 0.0 | 3.2 | 0.00 | 0.43 | 0.38 | 85 | 1013.0 |
| 20260904200005 | 16 | 0 | 3.2 | 4.8 | 0.00 | 0.43 | 0.38 | 84 | 1013.0 |
| 20260904195504 | 16 | 229 | 3.2 | 4.8 | 0.00 | 0.43 | 0.38 | 82 | 1013.1 |
| 20260904195005 | 16 | 254 | 1.6 | 3.2 | 0.00 | 0.46 | 0.38 | 81 | 1013.1 |
| 20260904194505 | 16 | 279 | 1.6 | 3.2 | 0.00 | 0.46 | 0.38 | 81 | 1013.2 |
| 20260904194005 | 16 | 336 | 1.6 | 3.2 | 0.00 | 0.66 | 0.38 | 81 | 1013.2 |
| 20260904193005 | 16 | 353 | 1.6 | 3.2 | 0.00 | 0.74 | 0.38 | 83 | 1013.4 |
| 20260904192504 | 16 | 294 | 0.0 | 3.2 | 0.00 | 0.76 | 0.38 | 83 | 1013.3 |
| 20260904192004 | 16 | 299 | 1.6 | 3.2 | 0.00 | 0.76 | 0.38 | 82 | 1013.4 |
| 20260904191505 | 16 | 334 | 1.6 | 3.2 | 0.00 | 0.76 | 0.38 | 85 | 1013.4 |
| 20260904191004 | 15 | 349 | 1.6 | 3.2 | 0.00 | 0.76 | 0.38 | 85 | 1013.4 |
| 20260904190505 | 15 | 322 | 1.6 | 3.2 | 0.00 | 0.79 | 0.38 | 86 | 1013.4 |
| 20260904190004 | 15 | 316 | 1.6 | 4.8 | 0.00 | 0.79 | 0.38 | 86 | 1013.4 |
| 20260904185505 | 15 | 325 | 3.2 | 4.8 | 0.00 | 0.79 | 0.38 | 87 | 1013.5 |
| 20260904185005 | 15 | 336 | 1.6 | 3.2 | 0.00 | 0.79 | 0.38 | 87 | 1013.5 |
| 20260904183504 | 14 | 333 | 1.6 | 4.8 | 0.00 | 0.81 | 0.38 | 87 | 1013.4 |
| 20260904183004 | 15 | 12 | 1.6 | 3.2 | 0.00 | 0.81 | 0.38 | 87 | 1013.4 |
| 20260904182504 | 15 | 23 | 1.6 | 3.2 | 0.00 | 0.84 | 0.38 | 87 | 1013.4 |
| 20260904182005 | 14 | 331 | 1.6 | 3.2 | 0.00 | 0.84 | 0.38 | 88 | 1013.3 |
| 20260904181504 | 14 | 21 | 3.2 | 3.2 | 0.00 | 0.84 | 0.38 | 88 | 1013.2 |
| 20260904181004 | 14 | 16 | 1.6 | 3.2 | 0.00 | 0.84 | 0.38 | 88 | 1013.2 |
| 20260904175005 | 14 | 309 | 3.2 | 4.8 | 0.00 | 0.84 | 0.38 | 89 | 1013.0 |
| 20260904174504 | 13 | 0 | 1.6 | 3.2 | 0.00 | 0.84 | 0.38 | 90 | 1013.0 |
| 20260904174004 | 13 | 3 | 1.6 | 4.8 | 0.00 | 0.84 | 0.38 | 90 | 1013.0 |
| 20260904173504 | 13 | 16 | 3.2 | 4.8 | 0.03 | 0.84 | 0.38 | 90 | 1013.0 |
| 20260904173004 | 13 | 296 | 3.2 | 4.8 | 0.03 | 0.84 | 0.38 | 90 | 1012.9 |
| 20260904172504 | 13 | 334 | 1.6 | 3.2 | 0.03 | 0.84 | 0.38 | 90 | 1013.0 |
| 20260904172004 | 13 | 325 | 1.6 | 3.2 | 0.03 | 0.84 | 0.38 | 91 | 1013.0 |
| 20260904171504 | 13 | 323 | 1.6 | 3.2 | 0.03 | 0.84 | 0.38 | 91 | 1012.9 |
| 20260904171004 | 13 | 334 | 1.6 | 3.2 | 0.03 | 0.84 | 0.38 | 91 | 1012.8 |
| 20260904170504 | 13 | 304 | 1.6 | 3.2 | 0.03 | 0.84 | 0.38 | 91 | 1012.9 |
| 20260904170004 | 13 | 318 | 1.6 | 3.2 | 0.03 | 0.84 | 0.38 | 91 | 1012.9 |
| 20260904165505 | 12 | 336 | 1.6 | 3.2 | 0.03 | 0.86 | 0.38 | 91 | 1012.9 |
| 20260904165005 | 12 | 331 | 3.2 | 3.2 | 0.03 | 0.86 | 0.38 | 91 | 1012.9 |
| 20260904164504 | 12 | 351 | 1.6 | 3.2 | 0.03 | 0.86 | 0.38 | 91 | 1012.8 |
| 20260904164004 | 12 | 0 | 1.6 | 3.2 | 0.03 | 0.86 | 0.38 | 91 | 1012.7 |
| 20260904163004 | 12 | 0 | 0.0 | 3.2 | 0.00 | 0.84 | 0.36 | 91 | 1012.9 |
| 20260904162504 | 12 | 0 | 1.6 | 3.2 | 0.00 | 0.84 | 0.36 | 91 | 1012.8 |
| 20260904162005 | 12 | 353 | 1.6 | 3.2 | 0.00 | 0.84 | 0.36 | 91 | 1012.7 |
| 20260904161005 | 12 | 235 | 0.0 | 3.2 | 0.00 | 0.84 | 0.36 | 91 | 1012.7 |
| 20260904160504 | 12 | 235 | 0.0 | 3.2 | 0.00 | 0.84 | 0.36 | 91 | 1012.6 |
| 20260904160005 | 12 | 236 | 0.0 | 3.2 | 0.00 | 0.84 | 0.36 | 91 | 1012.6 |
| 20260904155504 | 12 | 236 | 1.6 | 1.6 | 0.00 | 0.84 | 0.36 | 91 | 1012.6 |
| 20260904155005 | 12 | 236 | 0.0 | 3.2 | 0.00 | 0.84 | 0.36 | 91 | 1012.6 |
| 20260904154505 | 12 | 236 | 0.0 | 3.2 | 0.00 | 0.84 | 0.36 | 91 | 1012.6 |
| 20260904154005 | 12 | 236 | 0.0 | 3.2 | 0.00 | 0.84 | 0.36 | 91 | 1012.6 |
| 20260904153504 | 12 | 236 | 0.0 | 1.6 | 0.00 | 0.84 | 0.36 | 91 | 1012.6 |
| 20260904153005 | 12 | 236 | 0.0 | 3.2 | 0.00 | 0.84 | 0.36 | 91 | 1012.5 |
| 20260904152504 | 12 | 236 | 1.6 | 3.2 | 0.00 | 0.84 | 0.36 | 91 | 1012.4 |
| 20260904152004 | 12 | 236 | 1.6 | 1.6 | 0.00 | 0.86 | 0.36 | 91 | 1012.4 |
| 20260904151005 | 12 | 314 | 0.0 | 1.6 | 0.00 | 0.89 | 0.36 | 91 | 1012.3 |
| 20260904150504 | 12 | 315 | 0.0 | 3.2 | 0.00 | 0.91 | 0.36 | 91 | 1012.2 |
| 20260904150005 | 12 | 315 | 1.6 | 3.2 | 0.00 | 0.94 | 0.36 | 91 | 1012.1 |
| 20260904145505 | 12 | 315 | 0.0 | 3.2 | 0.00 | 0.97 | 0.36 | 91 | 1012.0 |
| 20260904144504 | 12 | 315 | 1.6 | 3.2 | 0.00 | 0.99 | 0.36 | 91 | 1011.9 |
| 20260904144004 | 12 | 331 | 0.0 | 0.0 | 0.00 | 0.99 | 0.36 | 91 | 1011.9 |
| 20260904143004 | 12 | 331 | 0.0 | 3.2 | 0.00 | 1.02 | 0.36 | 91 | 1011.8 |
| 20260904141504 | 12 | 300 | 0.0 | 1.6 | 0.05 | 1.04 | 0.36 | 91 | 1011.7 |
| 20260904140004 | 12 | 300 | 1.6 | 3.2 | 0.10 | 1.07 | 0.36 | 91 | 1011.5 |
| 20260904135505 | 12 | 300 | 0.0 | 3.2 | 0.10 | 1.07 | 0.36 | 91 | 1011.4 |
| 20260904135004 | 12 | 300 | 0.0 | 3.2 | 0.10 | 1.07 | 0.36 | 91 | 1011.4 |
| 20260904134504 | 12 | 327 | 0.0 | 3.2 | 0.13 | 1.09 | 0.36 | 91 | 1011.3 |
| 20260904134005 | 12 | 331 | 0.0 | 3.2 | 0.15 | 1.12 | 0.36 | 91 | 1011.3 |
| 20260904133004 | 12 | 5 | 1.6 | 3.2 | 0.18 | 1.12 | 0.36 | 91 | 1011.2 |
| 20260904132504 | 12 | 254 | 0.0 | 3.2 | 0.18 | 1.12 | 0.33 | 91 | 1011.3 |
| 20260904132005 | 12 | 254 | 1.6 | 3.2 | 0.18 | 1.17 | 0.30 | 91 | 1011.3 |
| 20260904131504 | 12 | 351 | 0.0 | 3.2 | 0.20 | 1.22 | 0.30 | 91 | 1011.2 |
| 20260904130004 | 12 | 9 | 1.6 | 3.2 | 0.20 | 1.17 | 0.25 | 91 | 1011.1 |
| 20260904125004 | 12 | 18 | 1.6 | 3.2 | 0.23 | 1.17 | 0.25 | 91 | 1011.0 |
| 20260904124504 | 12 | 18 | 1.6 | 3.2 | 0.20 | 1.14 | 0.23 | 91 | 1011.0 |
| 20260904124004 | 12 | 18 | 1.6 | 3.2 | 0.18 | 1.12 | 0.20 | 91 | 1011.1 |
| 20260904123005 | 12 | 18 | 1.6 | 3.2 | 0.15 | 1.22 | 0.18 | 91 | 1010.9 |
| 20260904122005 | 12 | 18 | 0.0 | 0.0 | 0.10 | 1.19 | 0.13 | 91 | 1010.9 |
| 20260904121004 | 12 | 18 | 0.0 | 0.0 | 0.05 | 1.17 | 0.08 | 91 | 1010.9 |
| 20260904120504 | 12 | 18 | 0.0 | 0.0 | 0.03 | 1.17 | 0.05 | 91 | 1010.9 |
| 20260904120004 | 12 | 18 | 0.0 | 1.6 | 0.05 | 1.19 | 0.05 | 91 | 1010.9 |
| 20260904115505 | 12 | 18 | 0.0 | 1.6 | 0.03 | 1.17 | 0.03 | 91 | 1010.8 |
| 20260904115004 | 12 | 18 | 0.0 | 3.2 | 0.03 | 1.19 | 0.03 | 91 | 1010.8 |
| 20260904114504 | 12 | 18 | 1.6 | 3.2 | 0.03 | 1.19 | 0.03 | 91 | 1010.7 |
| 20260904114004 | 12 | 18 | 1.6 | 3.2 | 0.03 | 1.22 | 0.03 | 91 | 1010.7 |
| 20260904113504 | 12 | 18 | 1.6 | 3.2 | 0.03 | 1.22 | 0.03 | 91 | 1010.6 |
| 20260904113004 | 12 | 17 | 1.6 | 3.2 | 0.03 | 1.24 | 0.03 | 90 | 1010.6 |
| 20260904112504 | 12 | 219 | 0.0 | 3.2 | 0.03 | 1.24 | 0.03 | 90 | 1010.6 |
| 20260904112004 | 12 | 219 | 0.0 | 3.2 | 0.03 | 1.24 | 0.03 | 90 | 1010.5 |
| 20260904111505 | 11 | 219 | 0.0 | 1.6 | 0.03 | 1.24 | 0.03 | 90 | 1010.5 |
| 20260904111004 | 11 | 219 | 0.0 | 1.6 | 0.03 | 1.24 | 0.03 | 90 | 1010.5 |
| 20260904110004 | 11 | 219 | 0.0 | 0.0 | 0.00 | 1.22 | 0.00 | 90 | 1010.5 |
| 20260904105504 | 11 | 219 | 0.0 | 3.2 | 0.00 | 1.22 | 0.00 | 90 | 1010.4 |
| 20260904105004 | 11 | 219 | 1.6 | 1.6 | 0.00 | 1.22 | 0.00 | 90 | 1010.4 |
| 20260904104504 | 11 | 219 | 0.0 | 3.2 | 0.00 | 1.22 | 0.00 | 90 | 1010.4 |
| 20260904104004 | 11 | 219 | 0.0 | 0.0 | 0.00 | 1.22 | 0.00 | 90 | 1010.4 |
| 20260904103505 | 11 | 219 | 0.0 | 3.2 | 0.00 | 1.22 | 0.00 | 90 | 1010.3 |
| 20260904103005 | 11 | 219 | 0.0 | 3.2 | 0.00 | 1.22 | 0.00 | 90 | 1010.3 |
| 20260904102504 | 11 | 219 | 0.0 | 3.2 | 0.00 | 1.22 | 0.00 | 90 | 1010.3 |
| 20260904102004 | 11 | 219 | 1.6 | 3.2 | 0.00 | 1.22 | 0.00 | 90 | 1010.3 |
| 20260904101504 | 11 | 219 | 1.6 | 1.6 | 0.00 | 1.22 | 0.00 | 90 | 1010.4 |
| 20260904101004 | 11 | 219 | 1.6 | 3.2 | 0.00 | 1.22 | 0.00 | 90 | 1010.3 |
| 20260904100504 | 11 | 196 | 1.6 | 3.2 | 0.00 | 1.22 | 0.00 | 90 | 1010.3 |
| 20260904100004 | 11 | 242 | 1.6 | 1.6 | 0.00 | 1.22 | 0.00 | 90 | 1010.3 |
| 20260904095504 | 11 | 242 | 1.6 | 3.2 | 0.00 | 1.22 | 0.00 | 90 | 1010.2 |
| 20260904095004 | 11 | 242 | 0.0 | 3.2 | 0.00 | 1.22 | 0.00 | 90 | 1010.1 |
| 20260904094504 | 11 | 242 | 1.6 | 3.2 | 0.00 | 1.22 | 0.00 | 90 | 1010.1 |
| 20260904094004 | 11 | 242 | 0.0 | 3.2 | 0.00 | 1.22 | 0.00 | 90 | 1010.0 |
| 20260904093504 | 11 | 242 | 0.0 | 3.2 | 0.00 | 1.22 | 0.00 | 90 | 1010.0 |
| 20260904093005 | 12 | 242 | 0.0 | 3.2 | 0.00 | 1.22 | 0.00 | 90 | 1010.0 |
| 20260904092504 | 12 | 242 | 1.6 | 1.6 | 0.00 | 1.22 | 0.00 | 90 | 1009.9 |
| 20260904092005 | 12 | 242 | 1.6 | 3.2 | 0.00 | 1.22 | 0.00 | 90 | 1009.9 |
| 20260904091504 | 12 | 242 | 0.0 | 3.2 | 0.00 | 1.22 | 0.00 | 90 | 1009.9 |
| 20260904091004 | 12 | 241 | 1.6 | 1.6 | 0.00 | 1.22 | 0.00 | 90 | 1009.9 |
| 20260904090504 | 12 | 253 | 1.6 | 1.6 | 0.00 | 1.22 | 0.00 | 90 | 1010.0 |
| 20260904090004 | 12 | 264 | 1.6 | 3.2 | 0.00 | 1.22 | 0.00 | 90 | 1010.0 |
| 20260904085504 | 12 | 317 | 0.0 | 1.6 | 0.00 | 1.22 | 0.00 | 89 | 1010.0 |
| 20260904085004 | 12 | 242 | 0.0 | 0.0 | 0.00 | 1.22 | 0.00 | 90 | 1010.0 |
| 20260904083504 | 12 | 0 | 0.0 | 3.2 | 0.00 | 1.22 | 0.00 | 89 | 1009.9 |
| 20260904083005 | 12 | 335 | 1.6 | 3.2 | 0.00 | 1.22 | 0.00 | 89 | 1010.0 |
| 20260904081504 | 12 | 0 | 3.2 | 3.2 | 0.00 | 1.22 | 0.00 | 89 | 1010.0 |
| 20260904081004 | 12 | 224 | 0.0 | 3.2 | 0.00 | 1.22 | 0.00 | 89 | 1010.0 |
| 20260904080504 | 12 | 244 | 1.6 | 3.2 | 0.00 | 1.22 | 0.00 | 89 | 1010.0 |
| 20260904075004 | 13 | 0 | 1.6 | 1.6 | 0.00 | 1.22 | 0.00 | 89 | 1009.9 |
| 20260904074504 | 13 | 26 | 0.0 | 1.6 | 0.00 | 1.22 | 0.00 | 89 | 1010.0 |
| 20260904074004 | 13 | 27 | 0.0 | 0.0 | 0.00 | 1.22 | 0.00 | 89 | 1009.9 |
| 20260904072504 | 13 | 0 | 0.0 | 1.6 | 0.00 | 1.22 | 0.00 | 89 | 1009.9 |
| 20260904072005 | 13 | 28 | 0.0 | 3.2 | 0.00 | 1.22 | 0.00 | 89 | 1009.9 |
| 20260904071505 | 13 | 27 | 0.0 | 3.2 | 0.00 | 1.22 | 0.00 | 89 | 1009.9 |
| 20260904071004 | 13 | 0 | 1.6 | 1.6 | 0.00 | 1.22 | 0.00 | 89 | 1009.9 |
| 20260904070504 | 13 | 0 | 3.2 | 3.2 | 0.00 | 1.22 | 0.00 | 90 | 1009.9 |
| 20260904070004 | 12 | 0 | 1.6 | 3.2 | 0.00 | 1.22 | 0.00 | 90 | 1009.8 |
| 20260904065504 | 12 | 236 | 0.0 | 0.0 | 0.00 | 1.22 | 1.22 | 90 | 1009.8 |
| 20260904065004 | 12 | 236 | 0.0 | 0.0 | 0.00 | 1.22 | 1.22 | 89 | 1009.8 |
| 20260904064504 | 12 | 236 | 0.0 | 0.0 | 0.00 | 1.22 | 1.22 | 90 | 1009.8 |
| 20260904064004 | 12 | 236 | 0.0 | 0.0 | 0.00 | 1.22 | 1.22 | 89 | 1009.8 |
| 20260904063504 | 12 | 236 | 0.0 | 0.0 | 0.00 | 1.22 | 1.22 | 89 | 1009.9 |
| 20260904062504 | 12 | 236 | 0.0 | 0.0 | 0.00 | 1.22 | 1.22 | 89 | 1009.9 |
| 20260904062004 | 12 | 236 | 0.0 | 0.0 | 0.00 | 1.22 | 1.22 | 89 | 1009.9 |
| 20260904061504 | 12 | 236 | 0.0 | 3.2 | 0.00 | 1.22 | 1.22 | 89 | 1009.9 |
| 20260904061004 | 12 | 0 | 0.0 | 0.0 | 0.00 | 1.22 | 1.22 | 89 | 1010.0 |
| 20260904055503 | 12 | 0 | 0.0 | 3.2 | 0.00 | 1.22 | 1.22 | 89 | 1009.9 |
| 20260904055004 | 13 | 0 | 0.0 | 1.6 | 0.00 | 1.22 | 1.22 | 88 | 1009.9 |
| 20260904054504 | 13 | 241 | 1.6 | 3.2 | 0.00 | 1.22 | 1.22 | 88 | 1009.9 |
| 20260904054004 | 13 | 287 | 1.6 | 3.2 | 0.00 | 1.22 | 1.22 | 88 | 1009.9 |
| 20260904053004 | 13 | 236 | 0.0 | 3.2 | 0.00 | 1.22 | 1.22 | 89 | 1009.9 |
| 20260904052504 | 13 | 356 | 1.6 | 1.6 | 0.00 | 1.22 | 1.22 | 89 | 1010.0 |
| 20260904051504 | 13 | 0 | 0.0 | 0.0 | 0.00 | 1.22 | 1.22 | 89 | 1010.0 |
| 20260904051005 | 13 | 0 | 0.0 | 3.2 | 0.00 | 1.22 | 1.22 | 88 | 1010.1 |
| 20260904050504 | 13 | 0 | 1.6 | 3.2 | 0.00 | 1.22 | 1.22 | 88 | 1010.1 |
| 20260904050004 | 13 | 236 | 1.6 | 1.6 | 0.00 | 1.22 | 1.22 | 88 | 1010.0 |
| 20260904045504 | 13 | 236 | 1.6 | 3.2 | 0.00 | 1.22 | 1.22 | 88 | 1010.0 |
| 20260904044004 | 13 | 155 | 0.0 | 1.6 | 0.00 | 1.22 | 1.22 | 88 | 1010.0 |
| 20260904043503 | 13 | 155 | 0.0 | 1.6 | 0.00 | 1.22 | 1.22 | 88 | 1009.9 |
| 20260904043004 | 13 | 155 | 0.0 | 3.2 | 0.00 | 1.22 | 1.22 | 88 | 1010.0 |
| 20260904042504 | 13 | 155 | 1.6 | 3.2 | 0.00 | 1.22 | 1.22 | 88 | 1009.9 |
| 20260904042004 | 13 | 152 | 3.2 | 4.8 | 0.00 | 1.22 | 1.22 | 88 | 1009.9 |
| 20260904041504 | 13 | 173 | 0.0 | 3.2 | 0.00 | 1.22 | 1.22 | 87 | 1010.0 |
| 20260904041004 | 13 | 152 | 1.6 | 3.2 | 0.00 | 1.22 | 1.22 | 87 | 1010.0 |
| 20260904040504 | 13 | 0 | 0.0 | 1.6 | 0.00 | 1.22 | 1.22 | 87 | 1010.0 |
| 20260904040004 | 13 | 0 | 0.0 | 1.6 | 0.00 | 1.22 | 1.22 | 87 | 1010.0 |
| 20260904035504 | 13 | 236 | 1.6 | 3.2 | 0.00 | 1.22 | 1.22 | 87 | 1009.9 |
| 20260904034504 | 13 | 212 | 0.0 | 3.2 | 0.00 | 1.22 | 1.22 | 87 | 1009.8 |
| 20260904034004 | 13 | 0 | 0.0 | 3.2 | 0.00 | 1.22 | 1.22 | 86 | 1009.7 |
| 20260904033504 | 13 | 212 | 0.0 | 3.2 | 0.00 | 1.22 | 1.22 | 86 | 1009.7 |
| 20260904033004 | 13 | 212 | 0.0 | 3.2 | 0.00 | 1.22 | 1.22 | 86 | 1009.6 |
| 20260904032004 | 14 | 332 | 1.6 | 3.2 | 0.00 | 1.22 | 1.22 | 85 | 1009.5 |
| 20260904031504 | 14 | 325 | 0.0 | 3.2 | 0.00 | 1.22 | 1.22 | 85 | 1009.6 |
| 20260904030004 | 14 | 358 | 1.6 | 1.6 | 0.00 | 1.22 | 1.22 | 84 | 1009.4 |
| 20260904025504 | 14 | 357 | 0.0 | 3.2 | 0.00 | 1.22 | 1.22 | 84 | 1009.4 |
| 20260904025004 | 14 | 358 | 1.6 | 3.2 | 0.00 | 1.22 | 1.22 | 83 | 1009.4 |
| 20260904024504 | 14 | 330 | 3.2 | 4.8 | 0.00 | 1.22 | 1.22 | 82 | 1009.4 |
| 20260904024004 | 15 | 353 | 3.2 | 3.2 | 0.00 | 1.22 | 1.22 | 81 | 1009.3 |
| 20260904023504 | 15 | 218 | 1.6 | 8.0 | 0.00 | 1.22 | 1.22 | 81 | 1009.3 |
| 20260904022503 | 15 | 326 | 1.6 | 4.8 | 0.00 | 1.22 | 1.22 | 79 | 1009.1 |
| 20260904022004 | 15 | 355 | 3.2 | 8.0 | 0.00 | 1.22 | 1.22 | 79 | 1009.2 |
| 20260904021504 | 15 | 194 | 4.8 | 8.0 | 0.00 | 1.22 | 1.22 | 79 | 1009.2 |
| 20260904021004 | 15 | 187 | 3.2 | 8.0 | 0.00 | 1.22 | 1.22 | 77 | 1009.2 |
| 20260904020504 | 15 | 346 | 4.8 | 9.7 | 0.00 | 1.22 | 1.22 | 77 | 1009.2 |
| 20260904020004 | 15 | 199 | 1.6 | 8.0 | 0.00 | 1.22 | 1.22 | 77 | 1009.2 |
| 20260904015504 | 15 | 0 | 1.6 | 8.0 | 0.00 | 1.22 | 1.22 | 77 | 1009.2 |
| 20260904015004 | 15 | 47 | 4.8 | 9.7 | 0.00 | 1.22 | 1.22 | 76 | 1009.3 |
| 20260904014503 | 15 | 194 | 4.8 | 9.7 | 0.00 | 1.22 | 1.22 | 76 | 1009.2 |
| 20260904014004 | 15 | 182 | 4.8 | 9.7 | 0.00 | 1.22 | 1.22 | 76 | 1009.3 |
| 20260904013504 | 15 | 169 | 4.8 | 12.9 | 0.00 | 1.22 | 1.22 | 75 | 1009.2 |
| 20260904013004 | 15 | 183 | 4.8 | 12.9 | 0.00 | 1.22 | 1.22 | 75 | 1009.2 |
| 20260904012504 | 16 | 181 | 9.7 | 16.1 | 0.00 | 1.22 | 1.22 | 75 | 1009.2 |
| 20260904012004 | 16 | 170 | 8.0 | 12.9 | 0.00 | 1.22 | 1.22 | 75 | 1009.2 |
| 20260904011505 | 16 | 152 | 8.0 | 14.5 | 0.00 | 1.22 | 1.22 | 74 | 1009.2 |